Time,TemperatureF,DewpointF,PressureIn,WindDirection,WindDirectionDegrees,WindSpeedMPH,WindSpeedGustMPH,Humidity,HourlyPrecipIn,Conditions,Clouds,dailyrainin,SoftwareType,DateUTC
2013-07-31 00:06:00,64.0,62.2,30.07,SE,143,0.0,0.0,94,0.00,,OVC095,-99.99,VWS V12.07,2013-07-31 04:06:00,
2013-07-31 00:14:00,63.9,62.1,30.07,SE,143,0.0,0.0,94,0.00,,OVC095,-99.99,VWS V12.07,2013-07-31 04:14:00,
2013-07-31 00:23:00,63.7,62.0,30.07,SE,143,0.0,0.0,94,0.00,,OVC095,-99.99,VWS V12.07,2013-07-31 04:23:00,
2013-07-31 00:35:00,64.5,62.7,30.07,SE,143,0.0,0.0,94,0.00,,OVC095,-99.99,VWS V12.07,2013-07-31 04:35:00,
2013-07-31 00:44:00,63.7,62.0,30.07,SE,143,0.0,0.0,94,0.00,,OVC095,-99.99,VWS V12.07,2013-07-31 04:44:00,
2013-07-31 00:54:00,63.5,61.8,30.07,SE,143,0.0,0.0,94,0.00,,OVC095,-99.99,VWS V12.07,2013-07-31 04:54:00,
2013-07-31 01:05:00,63.5,61.8,30.07,SE,143,0.0,0.0,94,0.00,,OVC095,-99.99,VWS V12.07,2013-07-31 05:05:00,
2013-07-31 01:13:00,63.4,61.7,30.07,SE,143,0.0,0.0,94,0.00,,OVC095,-99.99,VWS V12.07,2013-07-31 05:13:00,
2013-07-31 01:24:00,63.2,61.5,30.06,SE,143,0.0,0.0,94,0.00,,OVC095,-99.99,VWS V12.07,2013-07-31 05:24:00,
2013-07-31 01:35:00,63.1,61.3,30.06,SE,143,0.0,0.0,94,0.00,,OVC095,-99.99,VWS V12.07,2013-07-31 05:35:00,
2013-07-31 01:44:00,62.7,61.0,30.06,SE,143,0.0,0.0,94,0.00,,OVC095,-99.99,VWS V12.07,2013-07-31 05:44:00,
2013-07-31 01:53:00,62.7,61.0,30.06,SE,143,0.0,0.0,94,0.00,,OVC095,-99.99,VWS V12.07,2013-07-31 05:53:00,
2013-07-31 02:05:00,62.4,60.7,30.06,SE,143,0.0,0.0,94,0.00,,OVC095,-99.99,VWS V12.07,2013-07-31 06:05:00,
2013-07-31 02:14:00,62.3,60.8,30.06,SE,143,0.0,0.0,95,0.00,,OVC095,-99.99,VWS V12.07,2013-07-31 06:14:00,
2013-07-31 02:23:00,62.0,60.3,30.07,SE,143,0.0,0.0,94,0.00,,OVC095,-99.99,VWS V12.07,2013-07-31 06:23:00,
2013-07-31 02:35:00,62.0,60.6,30.07,SE,143,0.0,0.0,95,0.00,,OVC095,-99.99,VWS V12.07,2013-07-31 06:35:00,
2013-07-31 02:43:00,61.8,60.4,30.07,SE,143,0.0,0.0,95,0.00,,OVC095,-99.99,VWS V12.07,2013-07-31 06:43:00,
2013-07-31 02:54:00,61.6,60.2,30.07,SE,143,0.0,0.0,95,0.00,,OVC095,-99.99,VWS V12.07,2013-07-31 06:54:00,
2013-07-31 03:05:00,61.5,60.1,30.07,SE,143,0.0,0.0,95,0.00,,OVC095,-99.99,VWS V12.07,2013-07-31 07:05:00,
2013-07-31 03:13:00,61.2,59.8,30.07,SE,143,0.0,0.0,95,0.00,,OVC095,-99.99,VWS V12.07,2013-07-31 07:13:00,
2013-07-31 03:24:00,60.9,59.5,30.07,SE,143,0.0,0.0,95,0.00,,OVC095,-99.99,VWS V12.07,2013-07-31 07:24:00,
2013-07-31 03:35:00,61.3,59.9,30.07,SE,143,0.0,0.0,95,0.00,,OVC095,-99.99,VWS V12.07,2013-07-31 07:35:00,
2013-07-31 03:44:00,61.5,60.1,30.07,SE,143,0.0,0.0,95,0.00,,OVC095,-99.99,VWS V12.07,2013-07-31 07:44:00,
2013-07-31 03:53:00,60.4,59.0,30.07,SE,143,0.0,0.0,95,0.00,,OVC095,-99.99,VWS V12.07,2013-07-31 07:53:00,
2013-07-31 04:05:00,59.9,58.5,30.07,SE,143,0.0,0.0,95,0.00,,OVC095,-99.99,VWS V12.07,2013-07-31 08:05:00,
2013-07-31 04:13:00,59.8,58.4,30.07,SE,143,0.0,0.0,95,0.00,,OVC095,-99.99,VWS V12.07,2013-07-31 08:13:00,
2013-07-31 04:23:00,59.8,58.7,30.08,SE,143,0.0,0.0,96,0.00,,OVC095,-99.99,VWS V12.07,2013-07-31 08:23:00,
2013-07-31 04:35:00,59.8,58.7,30.08,SE,143,0.0,0.0,96,0.00,,OVC095,-99.99,VWS V12.07,2013-07-31 08:35:00,
2013-07-31 04:43:00,59.5,58.1,30.08,SE,143,0.0,0.0,95,0.00,,OVC095,-99.99,VWS V12.07,2013-07-31 08:43:00,
2013-07-31 04:53:00,59.0,57.6,30.07,SE,143,0.0,0.0,95,0.00,,OVC095,-99.99,VWS V12.07,2013-07-31 08:53:00,
2013-07-31 05:05:00,58.9,57.8,30.08,SE,143,0.0,0.0,96,0.00,,OVC095,-99.99,VWS V12.07,2013-07-31 09:05:00,
2013-07-31 05:13:00,58.9,57.8,30.08,SE,143,0.0,0.0,96,0.00,,OVC095,-99.99,VWS V12.07,2013-07-31 09:13:00,
2013-07-31 05:24:00,58.9,57.8,30.08,SE,143,0.0,0.0,96,0.00,,OVC095,-99.99,VWS V12.07,2013-07-31 09:24:00,
2013-07-31 05:35:00,59.6,58.5,30.08,SE,143,0.0,0.0,96,0.00,,OVC095,-99.99,VWS V12.07,2013-07-31 09:35:00,
2013-07-31 05:44:00,58.7,57.6,30.08,SE,143,0.0,0.0,96,0.00,,OVC095,-99.99,VWS V12.07,2013-07-31 09:44:00,
2013-07-31 05:53:00,58.4,57.3,30.09,SE,143,0.0,0.0,96,0.00,,OVC095,-99.99,VWS V12.07,2013-07-31 09:53:00,
2013-07-31 06:05:00,58.3,57.2,30.09,SE,143,0.0,0.0,96,0.00,,OVC095,-99.99,VWS V12.07,2013-07-31 10:05:00,
2013-07-31 06:14:00,58.3,57.2,30.09,SE,143,0.0,0.0,96,0.00,,OVC095,-99.99,VWS V12.07,2013-07-31 10:14:00,
2013-07-31 06:23:00,58.3,57.2,30.10,SE,143,0.0,0.0,96,0.00,,OVC095,-99.99,VWS V12.07,2013-07-31 10:23:00,
2013-07-31 06:35:00,58.1,57.0,30.10,SE,143,0.0,0.0,96,0.00,,OVC095,-99.99,VWS V12.07,2013-07-31 10:35:00,
2013-07-31 06:43:00,58.4,57.3,30.10,SE,143,0.0,0.0,96,0.00,,OVC095,-99.99,VWS V12.07,2013-07-31 10:43:00,
2013-07-31 06:54:00,59.5,58.4,30.10,SE,143,0.0,0.0,96,0.00,,OVC095,-99.99,VWS V12.07,2013-07-31 10:54:00,
2013-07-31 07:05:00,58.7,57.6,30.10,SE,143,0.0,0.0,96,0.00,,OVC095,-99.99,VWS V12.07,2013-07-31 11:05:00,
2013-07-31 07:13:00,58.9,58.0,30.10,SE,143,0.0,0.0,97,0.00,,OVC095,-99.99,VWS V12.07,2013-07-31 11:13:00,
2013-07-31 07:24:00,60.1,59.2,30.10,SE,143,0.0,0.0,97,0.00,,OVC095,-99.99,VWS V12.07,2013-07-31 11:24:00,
2013-07-31 07:35:00,60.1,59.2,30.10,SE,143,0.0,0.0,97,0.00,,OVC095,-99.99,VWS V12.07,2013-07-31 11:35:00,
2013-07-31 07:44:00,60.4,59.5,30.10,SE,143,0.0,0.0,97,0.00,,OVC095,-99.99,VWS V12.07,2013-07-31 11:44:00,
2013-07-31 07:53:00,61.0,60.2,30.10,SE,143,0.0,0.0,97,0.00,,OVC095,-99.99,VWS V12.07,2013-07-31 11:53:00,
2013-07-31 08:05:00,61.5,60.6,30.10,SE,143,0.0,0.0,97,0.00,,OVC095,-99.99,VWS V12.07,2013-07-31 12:05:00,
2013-07-31 08:13:00,61.8,60.9,30.10,SE,143,0.0,0.0,97,0.00,,OVC095,-99.99,VWS V12.07,2013-07-31 12:13:00,
2013-07-31 08:23:00,62.1,61.5,30.10,SE,143,0.0,0.0,98,0.00,,OVC095,-99.99,VWS V12.07,2013-07-31 12:23:00,
2013-07-31 08:35:00,62.6,61.7,30.10,SE,143,0.0,0.0,97,0.00,,OVC095,-99.99,VWS V12.07,2013-07-31 12:35:00,
2013-07-31 08:43:00,62.9,62.0,30.10,SE,143,0.0,0.0,97,0.00,,OVC095,-99.99,VWS V12.07,2013-07-31 12:43:00,
2013-07-31 08:54:00,63.4,62.5,30.10,SE,143,0.0,0.0,97,0.00,,OVC095,-99.99,VWS V12.07,2013-07-31 12:54:00,
2013-07-31 09:05:00,63.9,62.4,30.10,SE,143,0.0,0.0,95,0.00,,OVC095,-99.99,VWS V12.07,2013-07-31 13:05:00,
2013-07-31 09:13:00,65.3,63.5,30.10,SE,143,0.0,0.0,94,0.00,,OVC095,-99.99,VWS V12.07,2013-07-31 13:13:00,
2013-07-31 09:24:00,66.1,64.0,30.10,SE,143,0.0,0.0,93,0.00,,OVC095,-99.99,VWS V12.07,2013-07-31 13:24:00,
2013-07-31 09:35:00,66.0,63.3,30.09,SE,143,0.0,0.0,91,0.00,,OVC095,-99.99,VWS V12.07,2013-07-31 13:35:00,
2013-07-31 09:44:00,66.4,62.7,30.09,SE,143,1.0,2.0,88,0.00,,OVC095,-99.99,VWS V12.07,2013-07-31 13:44:00,
2013-07-31 09:53:00,67.1,62.5,30.09,SE,143,0.0,2.0,85,0.00,,OVC095,-99.99,VWS V12.07,2013-07-31 13:53:00,
2013-07-31 10:05:00,69.4,63.3,30.09,SE,143,1.0,1.0,81,0.00,,OVC095,-99.99,VWS V12.07,2013-07-31 14:05:00,
2013-07-31 10:14:00,68.8,62.0,30.09,SE,143,0.0,1.0,79,0.00,,OVC095,-99.99,VWS V12.07,2013-07-31 14:14:00,
2013-07-31 10:24:00,69.6,61.3,30.09,SE,143,0.0,2.0,75,0.00,,OVC095,-99.99,VWS V12.07,2013-07-31 14:24:00,
2013-07-31 10:35:00,71.8,63.5,30.09,SE,143,0.0,0.0,75,0.00,,OVC095,-99.99,VWS V12.07,2013-07-31 14:35:00,
2013-07-31 10:43:00,70.9,61.4,30.09,SE,143,0.0,1.0,72,0.00,,OVC095,-99.99,VWS V12.07,2013-07-31 14:43:00,
2013-07-31 10:54:00,72.0,62.5,30.08,South,171,0.0,3.0,72,0.00,,OVC095,-99.99,VWS V12.07,2013-07-31 14:54:00,
2013-07-31 11:05:00,72.7,62.0,30.08,South,171,0.0,0.0,69,0.00,,OVC095,-99.99,VWS V12.07,2013-07-31 15:05:00,
2013-07-31 13:13:00,79.6,61.0,30.05,SSE,167,0.0,3.0,53,0.00,,OVC095,-99.99,VWS V12.07,2013-07-31 17:13:00,
2013-07-31 13:24:00,79.6,62.5,30.05,SSE,148,0.0,7.0,56,0.00,,OVC095,-99.99,VWS V12.07,2013-07-31 17:24:00,
2013-07-31 13:34:00,81.1,62.4,30.04,SSE,155,0.0,0.0,53,0.00,,OVC095,-99.99,VWS V12.07,2013-07-31 17:34:00,
2013-07-31 13:44:00,80.5,63.4,30.04,SSE,161,1.0,2.0,56,0.00,,OVC095,-99.99,VWS V12.07,2013-07-31 17:44:00,
2013-07-31 13:53:00,80.5,61.3,30.04,SE,137,0.0,3.0,52,0.00,,OVC095,-99.99,VWS V12.07,2013-07-31 17:53:00,
2013-07-31 14:05:00,80.5,60.2,30.04,South,174,0.0,3.0,50,0.00,,OVC095,-99.99,VWS V12.07,2013-07-31 18:05:00,
2013-07-31 14:14:00,80.7,59.2,30.04,SSE,162,0.0,5.0,48,0.00,,OVC095,-99.99,VWS V12.07,2013-07-31 18:14:00,
2013-07-31 14:23:00,81.1,60.7,30.03,SSE,164,0.0,5.0,50,0.00,,OVC095,-99.99,VWS V12.07,2013-07-31 18:23:00,
2013-07-31 14:35:00,80.9,57.6,30.03,SSE,162,0.0,1.0,45,0.00,,OVC095,-99.99,VWS V12.07,2013-07-31 18:35:00,
2013-07-31 14:43:00,79.8,62.2,30.03,SSE,162,0.0,1.0,55,0.00,,OVC095,-99.99,VWS V12.07,2013-07-31 18:43:00,
2013-07-31 14:53:00,78.6,62.1,30.02,SSE,164,0.0,1.0,57,0.00,,OVC095,-99.99,VWS V12.07,2013-07-31 18:53:00,
2013-07-31 15:05:00,79.0,62.5,30.02,SSE,164,0.0,0.0,57,0.00,,OVC095,-99.99,VWS V12.07,2013-07-31 19:05:00,
2013-07-31 15:13:00,79.0,63.9,30.02,SSE,164,0.0,0.0,60,0.00,,OVC095,-99.99,VWS V12.07,2013-07-31 19:13:00,
2013-07-31 15:24:00,80.3,64.7,30.01,SSE,162,0.0,0.0,59,0.00,,OVC095,-99.99,VWS V12.07,2013-07-31 19:24:00,
2013-07-31 15:35:00,80.7,63.0,30.01,SSE,162,0.0,0.0,55,0.00,,OVC095,-99.99,VWS V12.07,2013-07-31 19:35:00,
2013-07-31 15:44:00,79.8,62.2,30.01,SSE,162,0.0,0.0,55,0.00,,OVC095,-99.99,VWS V12.07,2013-07-31 19:44:00,
2013-07-31 15:53:00,78.6,63.1,30.01,SSE,162,0.0,0.0,59,0.00,,OVC095,-99.99,VWS V12.07,2013-07-31 19:53:00,
2013-07-31 16:05:00,77.7,65.4,30.00,SSE,162,0.0,0.0,66,0.00,,OVC095,-99.99,VWS V12.07,2013-07-31 20:05:00,
2013-07-31 16:14:00,77.0,64.8,30.00,SSE,162,0.0,0.0,66,0.00,,OVC095,-99.99,VWS V12.07,2013-07-31 20:14:00,
2013-07-31 16:23:00,76.7,65.8,30.00,SSE,162,0.0,0.0,69,0.00,,OVC095,-99.99,VWS V12.07,2013-07-31 20:23:00,
2013-07-31 16:35:00,76.5,65.2,30.00,SSE,162,0.0,0.0,68,0.00,,OVC095,-99.99,VWS V12.07,2013-07-31 20:35:00,
2013-07-31 16:43:00,76.7,64.1,30.00,SSE,162,0.0,0.0,65,0.00,,OVC095,-99.99,VWS V12.07,2013-07-31 20:43:00,
2013-07-31 16:54:00,76.8,64.6,29.99,SSE,162,0.0,0.0,66,0.00,,OVC095,-99.99,VWS V12.07,2013-07-31 20:54:00,
2013-07-31 17:04:00,77.4,66.0,29.99,SSE,162,0.0,0.0,68,0.00,,OVC095,-99.99,VWS V12.07,2013-07-31 21:04:00,
2013-07-31 17:13:00,78.3,66.9,29.99,SSE,162,0.0,0.0,68,0.00,,OVC095,-99.99,VWS V12.07,2013-07-31 21:13:00,
2013-07-31 17:24:00,78.6,64.5,29.99,SSE,162,0.0,0.0,62,0.00,,OVC095,-99.99,VWS V12.07,2013-07-31 21:24:00,
2013-07-31 17:35:00,78.3,62.3,29.99,SSE,162,0.0,0.0,58,0.00,,OVC095,-99.99,VWS V12.07,2013-07-31 21:35:00,
2013-07-31 17:44:00,78.1,64.5,29.99,SSE,162,0.0,0.0,63,0.00,,OVC095,-99.99,VWS V12.07,2013-07-31 21:44:00,
2013-07-31 17:53:00,77.9,63.8,29.99,SSE,162,0.0,0.0,62,0.00,,OVC095,-99.99,VWS V12.07,2013-07-31 21:53:00,
2013-07-31 18:05:00,77.7,64.6,29.98,SSE,162,0.0,0.0,64,0.00,,OVC095,-99.99,VWS V12.07,2013-07-31 22:05:00,
2013-07-31 18:14:00,77.4,64.3,29.98,SSE,162,0.0,0.0,64,0.00,,OVC095,-99.99,VWS V12.07,2013-07-31 22:14:00,
2013-07-31 18:24:00,76.8,65.0,29.98,SSE,162,0.0,0.0,67,0.00,,OVC095,-99.99,VWS V12.07,2013-07-31 22:24:00,
2013-07-31 18:35:00,76.5,65.2,29.98,SSE,162,0.0,0.0,68,0.00,,OVC095,-99.99,VWS V12.07,2013-07-31 22:35:00,
2013-07-31 18:43:00,76.1,65.2,29.98,SSE,162,0.0,0.0,69,0.00,,OVC095,-99.99,VWS V12.07,2013-07-31 22:43:00,
2013-07-31 18:54:00,75.4,65.3,29.98,SSE,162,0.0,0.0,71,0.00,,OVC095,-99.99,VWS V12.07,2013-07-31 22:54:00,
2013-07-31 19:05:00,74.4,65.6,29.98,SSE,162,0.0,0.0,74,0.00,,OVC095,-99.99,VWS V12.07,2013-07-31 23:05:00,
2013-07-31 19:13:00,73.9,65.5,29.98,SSE,162,0.0,0.0,75,0.00,,OVC095,-99.99,VWS V12.07,2013-07-31 23:13:00,
2013-07-31 19:24:00,73.5,65.1,29.98,SSE,162,0.0,0.0,75,0.00,,OVC095,-99.99,VWS V12.07,2013-07-31 23:24:00,
2013-07-31 19:35:00,73.0,65.4,29.97,SSE,161,0.0,0.0,77,0.00,,OVC095,-99.99,VWS V12.07,2013-07-31 23:35:00,
2013-07-31 19:44:00,72.7,65.4,29.97,SSE,161,0.0,0.0,78,0.00,,OVC095,-99.99,VWS V12.07,2013-07-31 23:44:00,
2013-07-31 19:53:00,72.3,65.4,29.97,SSE,161,0.0,0.0,79,0.00,,OVC095,-99.99,VWS V12.07,2013-07-31 23:53:00,
2013-07-31 20:06:00,71.8,65.7,29.96,SSE,161,0.0,0.0,81,0.00,,OVC095,-99.99,VWS V12.07,2013-08-01 00:06:00,
2013-07-31 20:14:00,71.5,65.0,29.96,SSE,161,0.0,0.0,80,0.00,,OVC095,-99.99,VWS V12.07,2013-08-01 00:14:00,
2013-07-31 20:24:00,70.9,64.8,29.96,SSE,161,0.0,0.0,81,0.00,,OVC095,-99.99,VWS V12.07,2013-08-01 00:24:00,
2013-07-31 20:35:00,70.9,65.5,29.96,SSE,161,0.0,0.0,83,0.00,,OVC095,-99.99,VWS V12.07,2013-08-01 00:35:00,
2013-07-31 20:43:00,70.3,64.9,29.96,SSE,161,0.0,0.0,83,0.00,,OVC095,-99.99,VWS V12.07,2013-08-01 00:43:00,
2013-07-31 20:54:00,70.6,65.5,29.96,SSE,161,0.0,0.0,84,0.00,,OVC095,-99.99,VWS V12.07,2013-08-01 00:54:00,
2013-07-31 21:05:00,69.6,64.6,29.96,SSE,161,0.0,0.0,84,0.00,,OVC095,-99.99,VWS V12.07,2013-08-01 01:05:00,
2013-07-31 21:13:00,69.4,64.4,29.96,SSE,160,0.0,0.0,84,0.00,,OVC095,-99.99,VWS V12.07,2013-08-01 01:13:00,
2013-07-31 21:24:00,69.3,64.6,29.96,SSE,160,0.0,0.0,85,0.00,,OVC095,-99.99,VWS V12.07,2013-08-01 01:24:00,
2013-07-31 21:35:00,68.9,64.6,29.97,SSE,160,0.0,0.0,86,0.00,,OVC095,-99.99,VWS V12.07,2013-08-01 01:35:00,
2013-07-31 21:44:00,68.8,64.1,29.97,SSE,160,0.0,0.0,85,0.00,,OVC095,-99.99,VWS V12.07,2013-08-01 01:44:00,
2013-07-31 21:53:00,68.6,63.9,29.97,SSE,160,0.0,0.0,85,0.00,,OVC095,-99.99,VWS V12.07,2013-08-01 01:53:00,
2013-07-31 22:06:00,68.3,63.3,29.97,SSE,160,0.0,0.0,84,0.00,,OVC095,-99.99,VWS V12.07,2013-08-01 02:06:00,
2013-07-31 22:14:00,68.3,63.6,29.97,SSE,160,0.0,0.0,85,0.00,,OVC095,-99.99,VWS V12.07,2013-08-01 02:14:00,
2013-07-31 22:24:00,68.8,64.1,29.97,SSE,160,0.0,0.0,85,0.00,,OVC095,-99.99,VWS V12.07,2013-08-01 02:24:00,
2013-07-31 22:35:00,68.4,64.1,29.97,SSE,160,0.0,0.0,86,0.00,,OVC095,-99.99,VWS V12.07,2013-08-01 02:35:00,
2013-07-31 22:44:00,68.3,64.0,29.97,SSE,160,0.0,0.0,86,0.00,,OVC095,-99.99,VWS V12.07,2013-08-01 02:44:00,
2013-07-31 22:54:00,67.3,63.0,29.97,SSE,160,0.0,0.0,86,0.00,,OVC095,-99.99,VWS V12.07,2013-08-01 02:54:00,
2013-07-31 23:05:00,66.9,62.9,29.97,SSE,160,0.0,0.0,87,0.00,,OVC095,-99.99,VWS V12.07,2013-08-01 03:05:00,
2013-07-31 23:13:00,66.9,62.9,29.97,SSE,160,0.0,0.0,87,0.00,,OVC095,-99.99,VWS V12.07,2013-08-01 03:13:00,
2013-07-31 23:24:00,66.6,62.6,29.97,SSE,160,0.0,0.0,87,0.00,,OVC095,-99.99,VWS V12.07,2013-08-01 03:24:00,
2013-07-31 23:35:00,66.3,62.3,29.97,SSE,160,0.0,0.0,87,0.00,,OVC095,-99.99,VWS V12.07,2013-08-01 03:35:00,
2013-07-31 23:44:00,66.1,62.8,29.97,SSE,160,0.0,0.0,89,0.00,,OVC095,-99.99,VWS V12.07,2013-08-01 03:44:00,
2013-07-31 23:54:00,66.0,62.7,29.97,SSE,160,0.0,0.0,89,0.00,,OVC095,-99.99,VWS V12.07,2013-08-01 03:54:00,